[[{"header":{"parameterUnit":"m.s-1","parameterCategory":1,"la1":30.2991,"la2":30.254,"lo1":-89.0895,"lo2":-89.0444,"dy":0.0017,"dx":0.0017,"nx":28,"ny":28,"refTime":"2023-07-22T03:00:00:Z","depth":0,"parameterNumber":2,"parameterNumberName":"U-component_of_WINDS"},"data":[0,0,0,0,0,0,0,0,0,0,0,0,0,0,0,0,0,0,0,0,0,0,0,0,0,0,0,0,0,0,0,0,0,0,0,0,0,0,0,0,0,0,0,0,0,0,0,0,0,0,0,0,0,0,0,0,0,0,4.6292,4.6294,0,4.6489,4.6491,4.6493,4.6452,4.6448,4.6445,4.6441,4.6645,4.6654,4.6663,0,0,0,0,0,0,0,0,0,0,0,0,0,4.5884,4.5891,4.6292,4.6294,4.6297,4.6488,4.6491,4.6494,4.6453,4.6448,4.6444,4.644,4.6643,4.6653,4.6664,0,0,0,0,0,0,0,0,0,0,0,0,0,4.6069,4.5894,4.6292,4.63,4.6302,4.6488,4.6491,4.6494,4.6454,4.6448,4.6443,4.6438,4.6639,4.6652,4.6665,4.6856,0,0,4.6705,4.6711,0,0,0,0,0,0,0,0,4.6058,4.6084,4.6296,4.6299,4.6303,4.644,4.6422,4.6616,4.6455,4.6396,4.6441,4.6435,4.6582,4.6599,4.6648,4.6865,4.6874,4.6707,4.6715,4.672,4.6724,0,0,0,0,0,0,0,4.6046,4.6075,4.637,4.6299,4.6303,4.6294,4.6314,4.6458,4.6517,4.6401,4.6398,4.6422,4.6583,4.6636,4.6653,4.6877,4.6706,4.6718,4.6726,4.6731,4.7261,4.7266,0,0,0,0,0,0,4.6029,4.6065,4.6364,4.6376,4.6164,4.6306,4.6328,4.6402,4.6516,4.6528,4.6427,4.6419,4.6616,4.6637,4.666,4.689,4.672,4.6733,4.674,4.7255,4.7262,4.7269,0,0,0,0,0,0,4.6021,4.6057,4.6356,4.622,4.6257,4.6319,4.6401,4.6408,4.6461,4.6535,4.6545,4.647,4.6612,4.6641,4.6807,4.6897,4.6739,4.6751,4.7247,4.7257,4.7265,4.7352,0,0,0,0,0,0,4.6009,4.6054,4.6126,4.6222,4.6264,4.6499,4.6407,4.6416,4.6484,4.6476,4.6578,4.659,4.661,4.6788,4.682,4.6912,4.6761,4.724,4.7252,4.7262,4.7342,4.7363,4.7382,0,0,0,0,0,4.5995,4.6143,4.613,4.6166,4.6356,4.6504,4.6529,4.6548,4.6491,4.6565,4.6612,4.6587,4.6882,4.6805,4.6841,4.6938,4.7234,4.7248,4.7262,4.7333,4.7359,4.7381,0,0,0,0,0,0,4.6057,4.6156,4.6142,4.6326,4.6407,4.6497,4.659,4.6576,4.6675,4.6664,4.6685,4.6709,4.6878,4.6925,4.6837,4.7129,4.705,4.7072,4.7092,4.7117,4.7137,4.7121,4.6772,0,0,0,0,0,4.6092,4.6203,4.6284,4.6438,4.648,4.6528,4.6594,4.6602,4.6687,4.6721,4.6781,4.6865,4.6977,4.705,4.7157,4.7349,4.7371,4.7434,4.7454,4.747,4.7488,4.7593,4.7622,4.7314,4.7314,4.7314,0,0,4.6166,4.6234,4.6303,4.6453,4.6516,4.6632,4.6557,4.6683,4.6768,4.674,4.69,4.6947,4.7043,4.7223,4.7305,4.7267,4.7578,4.7488,4.75,4.751,4.761,4.764,4.7665,4.7323,4.7322,4.732,0,0,4.6358,4.6421,4.6556,4.6622,4.6719,4.675,4.6783,4.6876,4.6906,4.7066,4.7048,4.7151,4.7343,4.7412,4.7472,4.7692,4.7672,4.7727,4.7831,4.7933,4.7958,4.7979,4.8057,4.8085,4.7745,4.7745,4.7745,0,4.6437,4.6609,4.6628,4.6755,4.6821,4.6801,4.6938,4.7001,4.7129,4.7176,4.7132,4.7373,4.7436,4.7631,4.7685,4.7735,4.7773,4.7714,4.7952,4.7974,4.7995,4.8069,4.8099,4.7751,4.775,4.775,4.7749,0,4.6702,4.6822,4.6919,4.7042,4.712,4.7252,4.7291,4.7368,4.737,4.7406,4.757,4.7646,4.7767,4.7815,4.7818,4.8011,4.7985,4.7947,4.7867,4.803,4.81,4.8129,4.7759,4.7757,4.7756,4.7754,0,0,4.6937,4.7069,4.7104,4.716,4.7266,4.736,4.7491,4.761,4.7675,4.7765,4.7875,4.8039,4.8004,4.8073,4.8084,4.8174,4.8343,4.8125,4.8128,4.8162,4.856,4.8587,4.862,4.8331,4.8337,4.8341,4.8552,0,4.7138,4.7368,4.7389,4.7596,4.7707,4.769,4.7805,4.7883,4.7921,4.8022,4.8064,4.8179,4.8126,4.8167,4.8255,4.8304,4.8423,4.8289,4.8435,4.844,4.841,4.8657,4.8686,4.8881,4.858,4.8584,4.8588,0,4.7403,4.75,4.7717,4.7809,4.7856,4.7958,4.8069,4.8165,4.8254,4.8276,4.8353,4.8352,4.8488,4.8405,4.8593,4.8501,4.8563,4.8596,4.8604,4.8617,4.8522,4.8676,4.8944,4.8972,4.8631,4.8628,4.8625,0,4.7552,4.7736,4.789,4.7939,4.8049,4.8122,4.8171,4.8255,4.8325,4.8422,4.8468,4.858,4.8641,4.8729,4.8759,4.8696,4.8946,4.8865,4.8968,4.8967,4.902,4.9016,4.93,4.9062,4.9061,4.9061,4.906,0,4.7773,4.7907,4.7958,4.8053,4.8203,4.8226,4.8374,4.842,4.8495,4.8599,4.8592,4.869,4.8725,4.8829,4.8854,4.9006,4.9034,4.9056,4.9061,4.9056,4.9053,4.9095,4.9082,4.9069,4.9067,4.9065,4.9064,0,4.7963,4.8003,4.817,4.8261,4.8288,4.8394,4.8472,4.8564,4.8601,4.8733,4.8765,4.8824,4.8946,4.8986,4.9134,4.9151,4.9328,4.9322,4.9298,4.9298,4.9398,4.9388,4.9718,4.9763,4.9496,4.9498,4.9501,0,4.8101,4.8204,4.8306,4.8375,4.8427,4.8538,4.8609,4.8637,4.8712,4.8822,4.8901,4.9022,4.912,4.9317,4.9373,4.9487,4.9482,4.959,4.9499,4.9491,4.9483,4.9476,4.9486,4.9607,4.961,4.9612,4.9614,0,4.8341,4.8356,4.8459,4.8569,4.8654,4.8743,4.8828,4.8885,4.8925,4.901,4.9134,4.9211,4.9362,4.9483,4.9598,4.9651,4.964,4.9642,4.9672,4.9667,4.9649,4.966,4.9343,4.9634,4.9632,4.9631,4.963,4.9629,4.8509,4.8599,4.8685,4.88,4.8867,4.8947,4.9038,4.9087,4.9191,4.9315,4.9326,4.9461,4.9548,4.9703,4.9761,4.9868,4.9837,4.988,4.9891,4.9901,4.9908,4.9633,4.9889,4.9889,4.9888,4.9888,4.9887,0,4.8748,4.8803,4.8908,4.9027,4.9118,4.91,4.9193,4.927,4.9389,4.9471,4.9568,4.9712,4.9829,4.9895,5.0013,5.0085,5.0083,5.0115,5.011,5.0122,4.9929,4.9891,5.0115,5.0115,5.0115,5.0115,5.0115,5.0115,4.8883,4.9034,4.906,4.9245,4.9299,4.943,4.9485,4.956,4.9625,4.9786,4.9883,4.9925,5.0002,5.0125,5.0232,5.0249,5.0292,5.0327,5.0341,5.0159,5.0135,5.0113,5.0078,5.0337,5.0337,5.0524,5.0526,5.0527]},{"header":{"parameterUnit":"m.s-1","parameterCategory":1,"la1":30.2991,"la2":30.254,"lo1":-89.0895,"lo2":-89.0444,"dy":0.0017,"dx":0.0017,"nx":28,"ny":28,"refTime":"2023-07-22T03:00:00:Z","depth":0,"parameterNumber":3,"parameterNumberName":"V-component_of_WINDS"},"data":[0,0,0,0,0,0,0,0,0,0,0,0,0,0,0,0,0,0,0,0,0,0,0,0,0,0,0,0,0,0,0,0,0,0,0,0,0,0,0,0,0,0,0,0,0,0,0,0,0,0,0,0,0,0,0,0,0,0,6.2049,6.2049,0,6.2039,6.2039,6.2038,6.192,6.1917,6.1914,6.1912,6.1899,6.1902,6.1904,0,0,0,0,0,0,0,0,0,0,0,0,0,6.1967,6.1969,6.2049,6.2049,6.2049,6.2039,6.2039,6.2038,6.1921,6.1917,6.1914,6.191,6.1899,6.1902,6.1904,0,0,0,0,0,0,0,0,0,0,0,0,0,6.1984,6.1969,6.2049,6.1989,6.1984,6.2039,6.2039,6.2038,6.1922,6.1917,6.1913,6.1909,6.1898,6.1901,6.1905,6.2016,0,0,6.1916,6.1918,0,0,0,0,0,0,0,0,6.1983,6.1987,6.1998,6.1993,6.1987,6.1976,6.2005,6.2031,6.1923,6.1945,6.1912,6.1906,6.1929,6.1929,6.1937,6.2016,6.2015,6.1916,6.1919,6.192,6.1921,0,0,0,0,0,0,0,6.1982,6.1987,6.2045,6.1998,6.1992,6.1962,6.196,6.2009,6.1962,6.1943,6.1934,6.1935,6.1925,6.1934,6.1936,6.2015,6.1916,6.1919,6.1922,6.1923,6.2185,6.219,0,0,0,0,0,0,6.1989,6.1987,6.2045,6.2045,6.1974,6.1968,6.1965,6.1984,6.1961,6.1953,6.1939,6.1929,6.193,6.1932,6.1935,6.2064,6.192,6.1924,6.1926,6.2181,6.2186,6.2192,0,0,0,0,0,0,6.1988,6.1996,6.2046,6.2013,6.2017,6.1974,6.1997,6.1986,6.1995,6.1958,6.1949,6.1957,6.1926,6.193,6.1997,6.2062,6.1925,6.1928,6.2175,6.2182,6.2189,6.2324,0,0,0,0,0,0,6.1986,6.1996,6.2038,6.2015,6.202,6.2109,6.2001,6.1989,6.2002,6.199,6.1972,6.1965,6.1923,6.1992,6.2001,6.2065,6.1931,6.2169,6.2178,6.2187,6.2313,6.2335,6.2353,0,0,0,0,0,6.1984,6.2076,6.2041,6.2048,6.2071,6.2113,6.2115,6.2065,6.2008,6.205,6.2026,6.1966,6.2054,6.2,6.2009,6.2075,6.2165,6.2176,6.2186,6.2304,6.233,6.2352,0,0,0,0,0,0,6.2106,6.2072,6.2032,6.212,6.212,6.2093,6.2143,6.2094,6.2111,6.2098,6.2036,6.2033,6.211,6.2099,6.204,6.2182,6.2099,6.2112,6.2186,6.221,6.223,6.2231,6.1934,0,0,0,0,0,6.2144,6.2181,6.2148,6.2228,6.2231,6.2188,6.2204,6.2166,6.2163,6.2163,6.2143,6.2143,6.217,6.219,6.2213,6.2312,6.2306,6.2361,6.2381,6.2397,6.2409,6.2461,6.2485,6.2227,6.2227,6.2227,0,0,6.2221,6.2206,6.2233,6.2253,6.2248,6.2288,6.2188,6.2234,6.2263,6.2169,6.2232,6.2218,6.2213,6.2297,6.2333,6.229,6.248,6.2411,6.2425,6.2427,6.2475,6.2499,6.2521,6.2234,6.2233,6.2232,0,0,6.2381,6.2375,6.2441,6.2439,6.2435,6.2406,6.2422,6.2402,6.239,6.2452,6.2383,6.2416,6.2465,6.2465,6.2471,6.2634,6.258,6.2644,6.2747,6.2798,6.2818,6.2836,6.2894,6.2916,6.2655,6.2656,6.2656,0,6.2477,6.2534,6.2481,6.2532,6.2543,6.2461,6.2528,6.2529,6.2532,6.2541,6.2494,6.2554,6.2545,6.2628,6.2668,6.2676,6.2693,6.2645,6.282,6.2837,6.2853,6.2908,6.293,6.2664,6.2663,6.2662,6.2661,0,6.2653,6.2694,6.2748,6.2755,6.2771,6.283,6.2786,6.2809,6.277,6.2747,6.2811,6.2798,6.2818,6.2835,6.2797,6.2913,6.2887,6.2831,6.2746,6.2886,6.2937,6.2957,6.2675,6.2672,6.267,6.2668,0,0,6.2889,6.2866,6.2887,6.289,6.2879,6.291,6.2965,6.2985,6.3007,6.3012,6.3057,6.3101,6.305,6.3057,6.3019,6.3064,6.3194,6.3002,6.3001,6.3038,6.3322,6.3364,6.3389,6.3159,6.3162,6.3165,6.3322,0,6.3043,6.3137,6.3092,6.319,6.3228,6.3152,6.32,6.32,6.3179,6.3208,6.3185,6.3217,6.3147,6.3151,6.3193,6.317,6.325,6.3158,6.3199,6.3202,6.3203,6.3415,6.3459,6.3608,6.3342,6.3345,6.3347,0,6.3236,6.3251,6.3354,6.3338,6.3352,6.3397,6.3412,6.344,6.3438,6.342,6.343,6.3381,6.3434,6.3352,6.3424,6.3362,6.3377,6.3369,6.3373,6.3374,6.3283,6.3422,6.3654,6.3676,6.3378,6.3375,6.3373,0,6.3397,6.3443,6.3511,6.3516,6.3499,6.3532,6.3527,6.352,6.3536,6.3549,6.3558,6.3578,6.3589,6.3605,6.3563,6.3506,6.3642,6.3555,6.3628,6.3629,6.3659,6.3658,6.3896,6.367,6.3669,6.3669,6.3668,0,6.3574,6.364,6.3584,6.3625,6.3697,6.3645,6.3718,6.3704,6.3699,6.3737,6.3673,6.3709,6.3652,6.3683,6.3651,6.3716,6.3721,6.3708,6.3699,6.3714,6.3715,6.3722,6.371,6.3675,6.3673,6.3672,6.3671,0,6.3766,6.3731,6.38,6.378,6.3776,6.383,6.3812,6.385,6.3826,6.3875,6.3883,6.3846,6.3879,6.3839,6.3869,6.3847,6.3936,6.3911,6.3937,6.393,6.4005,6.3999,6.4256,6.4287,6.4041,6.4044,6.4046,0,6.3881,6.393,6.3916,6.3937,6.3936,6.3971,6.3987,6.3937,6.3957,6.3959,6.3997,6.4025,6.4045,6.4102,6.4077,6.41,6.4075,6.4164,6.4078,6.4092,6.4076,6.4074,6.4079,6.4181,6.4184,6.4186,6.4188,0,6.4089,6.407,6.4095,6.4116,6.4138,6.4151,6.416,6.4181,6.4129,6.4154,6.4188,6.4204,6.4235,6.4264,6.4281,6.4274,6.4223,6.4216,6.4234,6.4249,6.4262,6.4256,6.3985,6.421,6.4207,6.4206,6.4205,6.4204,6.4245,6.4286,6.4283,6.4314,6.4316,6.4326,6.4361,6.4343,6.437,6.4392,6.4362,6.4404,6.4402,6.4419,6.4419,6.4451,6.4413,6.4439,6.4446,6.4453,6.4465,6.4258,6.4454,6.4453,6.4453,6.4452,6.4452,0,6.4449,6.4444,6.4474,6.4489,6.4514,6.4465,6.4473,6.4497,6.4535,6.4538,6.456,6.4599,6.4628,6.4606,6.463,6.466,6.4637,6.4668,6.4665,6.4665,6.4497,6.4479,6.4686,6.4686,6.4686,6.4686,6.4686,6.4686,6.4559,6.4625,6.4606,6.4674,6.4667,6.471,6.4718,6.4727,6.4729,6.4777,6.4801,6.4787,6.478,6.4803,6.4827,6.482,6.4831,6.4871,6.4855,6.4699,6.4676,6.4654,6.4637,6.4874,6.4874,6.502,6.5021,6.5022]}]]